Date String (YYYY-MM-DD hh:mm:ss) UTC,Instrument flags,Ambient pressure (hPa),Sample flow (lpm),Bypass flow (lpm),Sample temperature (°C),Ambient temperature (°C),ASC tube jacket temperature (°C),LED temperature (°C),Box temperature (°C),Sample RH (%),Span deviation,Mass concentration (μg/m³),Mass concentration (μg/m³),Mass concentration (μg/m³)
DateTimeUTC,F1_M11,P_M11,Q1_M11,Q2_M11,T1_M11,T2_M11,T3_M11,T4_M11,T5_M11,U1_M11,ZSPAN_M11,X0_M11,X2_M11,X1_M11
2022-11-12 03:00:00,,0827.2,5.00,0.00,22.6,21.7,00.0,31.3,24.5,10.1,-001.3,0017.04,0009.09,0008.09
2022-11-12 03:01:00,,0827.1,5.01,0.00,22.6,21.5,00.0,31.3,24.5,10.1,-000.6,0017.16,0009.13,0008.12
2022-11-12 03:02:00,,0827.1,4.98,0.00,22.5,21.4,00.0,31.3,24.4,10.1,-000.3,0017.93,0009.18,0008.14
2022-11-12 03:03:00,,0827.2,5.00,0.00,22.5,21.3,00.0,31.3,24.4,10.1,-000.4,0019.74,0009.26,0008.17
2022-11-12 03:04:00,,0827.2,5.00,0.00,22.5,21.2,00.0,31.3,24.4,10.1,-000.0,0020.20,0009.33,0008.20
2022-11-12 03:05:00,,0827.1,5.00,0.00,22.5,21.1,00.0,31.3,24.4,10.1,0000.5,0020.19,0009.33,0008.21
2022-11-12 03:06:00,,0827.1,5.01,0.00,22.5,21.1,00.0,31.3,24.3,10.1,0000.8,0020.14,0009.37,0008.22
2022-11-12 03:07:00,,0827.1,5.00,0.00,22.5,21.0,00.0,31.3,24.3,10.1,0001.0,0020.36,0009.42,0008.23
2022-11-12 03:08:00,,0827.2,4.99,0.00,22.5,21.0,00.0,31.3,24.3,10.1,0001.3,0019.93,0009.43,0008.26
2022-11-12 03:09:00,,0827.0,5.00,0.00,22.4,21.0,00.0,31.3,24.3,10.1,0002.0,0019.40,0009.41,0008.26
2022-11-12 03:10:00,,0827.1,5.00,0.00,22.4,20.9,00.0,31.3,24.3,10.1,0002.6,0019.23,0009.45,0008.27
2022-11-12 03:11:00,,0827.3,4.99,0.00,22.4,20.9,00.0,31.3,24.2,10.1,0002.3,0019.62,0009.44,0008.29
2022-11-12 03:12:00,,0827.4,5.00,0.00,22.4,20.9,00.0,31.3,24.2,10.1,0001.4,0020.95,0009.43,0008.30
2022-11-12 03:13:00,,0827.3,5.01,0.00,22.4,20.8,00.0,31.3,24.2,10.1,0000.8,0021.74,0009.48,0008.33
2022-11-12 03:14:00,,0827.4,4.99,0.00,22.3,20.8,00.0,31.3,24.2,10.1,0001.0,0021.78,0009.47,0008.33
2022-11-12 03:15:00,,0827.5,5.00,0.00,22.3,20.8,00.0,31.3,24.2,10.2,0000.8,0021.23,0009.44,0008.34
2022-11-12 03:16:00,,0827.3,5.00,0.00,22.3,20.8,00.0,31.2,24.1,10.2,0000.8,0021.35,0009.47,0008.36
2022-11-12 03:17:00,,0827.1,5.00,0.00,22.3,20.8,00.0,31.2,24.1,10.2,0000.6,0021.29,0009.45,0008.37
2022-11-12 03:18:00,,0827.1,5.00,0.00,22.3,20.8,00.0,31.2,24.1,10.2,0000.5,0021.61,0009.42,0008.36
2022-11-12 03:19:00,,0827.2,5.01,0.00,22.3,21.1,00.0,31.2,24.2,10.2,0000.7,0021.11,0009.46,0008.36
2022-11-12 03:20:00,,0827.1,4.99,0.00,22.4,21.9,00.0,31.2,24.4,10.2,0000.6,0020.74,0009.45,0008.36
2022-11-12 03:21:00,,0827.2,4.99,0.00,22.5,22.2,00.0,31.2,24.5,10.1,-000.0,0020.73,0009.40,0008.35
2022-11-12 03:22:00,,0827.2,5.00,0.00,22.5,22.0,00.0,31.2,24.5,10.1,-000.0,0020.26,0009.37,0008.34
2022-11-12 03:23:00,,0827.2,5.01,0.00,22.5,21.8,00.0,31.2,24.5,10.1,0000.4,0019.16,0009.37,0008.34
2022-11-12 03:24:00,,0827.1,5.00,0.00,22.5,21.6,00.0,31.3,24.4,10.1,0000.8,0017.95,0009.34,0008.32
2022-11-12 03:25:00,,0827.2,4.99,0.00,22.5,21.4,00.0,31.3,24.4,10.1,0000.8,0016.50,0009.34,0008.31
2022-11-12 03:26:00,,0827.1,5.00,0.00,22.5,21.3,00.0,31.3,24.4,10.1,0000.3,0015.98,0009.36,0008.31
2022-11-12 03:27:00,,0827.1,5.00,0.00,22.5,21.2,00.0,31.3,24.4,10.1,0000.3,0016.18,0009.37,0008.31
2022-11-12 03:28:00,,0827.1,5.01,0.00,22.5,21.1,00.0,31.3,24.3,10.1,0000.2,0016.77,0009.32,0008.32
2022-11-12 03:29:00,,0827.1,5.00,0.00,22.5,21.1,00.0,31.3,24.3,10.1,-000.0,0016.23,0009.29,0008.33
2022-11-12 03:30:00,,0827.1,4.99,0.00,22.4,21.0,00.0,31.3,24.3,10.1,-000.5,0016.36,0009.26,0008.34
2022-11-12 03:31:00,,0827.1,5.00,0.00,22.4,21.0,00.0,31.3,24.3,10.1,-000.6,0016.54,0009.28,0008.35
2022-11-12 03:32:00,,0827.1,5.00,0.00,22.4,21.0,00.0,31.3,24.3,10.2,-000.2,0016.39,0009.29,0008.36
2022-11-12 03:33:00,,0827.1,5.00,0.00,22.4,20.9,00.0,31.3,24.2,10.2,-000.3,0016.53,0009.26,0008.36
2022-11-12 03:34:00,,0827.2,5.01,0.00,22.4,20.9,00.0,31.3,24.2,10.2,-000.6,0016.53,0009.22,0008.34
2022-11-12 03:35:00,,0827.2,5.00,0.00,22.4,20.9,00.0,31.3,24.2,10.2,-000.6,0016.09,0009.20,0008.33
2022-11-12 03:36:00,,0827.2,4.98,0.00,22.3,20.9,00.0,31.2,24.2,10.2,-001.0,0016.67,0009.19,0008.33
2022-11-12 03:37:00,,0827.2,5.00,0.00,22.3,20.8,00.0,31.2,24.2,10.2,-001.0,0016.93,0009.20,0008.31
2022-11-12 03:38:00,,0827.2,5.00,0.00,22.3,20.8,00.0,31.2,24.1,10.2,-001.4,0016.63,0009.16,0008.29
2022-11-12 03:39:00,,0827.3,4.99,0.00,22.3,21.0,00.0,31.2,24.2,10.2,-001.3,0016.07,0009.16,0008.27
2022-11-12 03:40:00,,0827.3,5.01,0.00,22.4,21.8,00.0,31.2,24.4,10.2,-001.0,0016.25,0009.18,0008.28
2022-11-12 03:41:00,,0827.4,5.00,0.00,22.5,22.6,00.0,31.2,24.6,10.1,-001.1,0016.17,0009.18,0008.27
2022-11-12 03:42:00,,0827.4,4.99,0.00,22.6,22.6,00.0,31.2,24.7,10.1,-001.4,0016.84,0009.19,0008.24
2022-11-12 03:43:00,,0827.3,5.00,0.00,22.6,22.2,00.0,31.2,24.6,10.1,-001.3,0017.11,0009.21,0008.23
2022-11-12 03:44:00,,0827.4,4.99,0.00,22.6,21.9,00.0,31.3,24.5,10.1,-001.6,0017.13,0009.23,0008.22
2022-11-12 03:45:00,,0827.4,5.00,0.00,22.6,21.7,00.0,31.3,24.5,10.1,-001.6,0017.61,0009.27,0008.22
2022-11-12 03:46:00,,0827.4,5.00,0.00,22.6,21.5,00.0,31.3,24.5,10.1,-001.4,0018.37,0009.29,0008.21
2022-11-12 03:47:00,,0827.4,5.00,0.00,22.6,21.3,00.0,31.3,24.4,10.1,-001.1,0018.07,0009.28,0008.21
2022-11-12 03:48:00,,0827.4,5.01,0.00,22.5,21.2,00.0,31.3,24.4,10.1,-000.6,0018.96,0009.28,0008.21
2022-11-12 03:49:00,,0827.4,5.00,0.00,22.5,21.1,00.0,31.3,24.4,10.1,-000.2,0019.27,0009.30,0008.21
2022-11-12 03:50:00,,0827.3,4.98,0.00,22.5,21.0,00.0,31.3,24.3,10.1,-000.2,0019.20,0009.31,0008.21
2022-11-12 03:51:00,,0827.3,5.01,0.00,22.5,21.0,00.0,31.3,24.3,10.1,-000.2,0019.20,0009.27,0008.19
2022-11-12 03:52:00,,0827.4,5.01,0.00,22.5,21.0,00.0,31.3,24.3,10.1,0000.1,0019.95,0009.24,0008.19
2022-11-12 03:53:00,,0827.4,5.01,0.00,22.5,20.9,00.0,31.3,24.3,10.1,0000.7,0020.42,0009.26,0008.20
2022-11-12 03:54:00,,0827.4,4.99,0.00,22.4,20.9,00.0,31.3,24.3,10.1,0000.5,0021.24,0009.28,0008.19
2022-11-12 03:55:00,,0827.4,5.00,0.00,22.4,20.9,00.0,31.3,24.2,10.1,0000.5,0021.81,0009.31,0008.18
2022-11-12 03:56:00,,0827.4,5.01,0.00,22.4,20.8,00.0,31.3,24.2,10.1,0000.4,0021.54,0009.28,0008.18
2022-11-12 03:57:00,,0827.4,5.01,0.00,22.4,20.8,00.0,31.3,24.2,10.1,0000.0,0021.14,0009.26,0008.18
2022-11-12 03:58:00,,0827.4,4.99,0.00,22.4,20.8,00.0,31.2,24.2,10.2,-000.3,0021.00,0009.32,0008.17
2022-11-12 03:59:00,,0827.4,4.99,0.00,22.3,20.7,00.0,31.2,24.1,10.2,-000.7,0020.04,0009.30,0008.14
